www.pogodaiklimat.ru

Погода и климат >> Архив погоды >> Бразилия >> Гояс >> Морриньюс


ПОГОДА в Морриньюсе

  • Прогноз погоды в Морриньюсе
  • Монитор погоды в Морриньюсе

АРХИВ ПОГОДЫ в Морриньюсе

Время (UTC), дата Ветер
(напр.,м/с)
 
Видим.   Явления Облачность Т
(С)
Тd
(С)
f
(%)
Тe
(С)
Тes
(С)
Комфортность P
(гПа)
Po
(гПа)
Тmin
(С)
Tmax
(С)
R
(мм)
R24
(мм)
S
(см)
22 15.04 штиль 0
{1}
н/о н/о +24.1 +19.7 76 +29 +29 душно 1013.6 929.7
23 15.04 штиль 0
{3}
н/о н/о +23.5 +19.5 78 +29 +29 душно 1014.4 930.3
00 16.04 ЮВ 1
{2}
н/о н/о +22.0 +19.9 88 +28 +28 душно 1015.5 930.9
01 16.04 штиль 0
{1}
н/о н/о +22.0 +19.9 88 +28 +28 душно 1016.2 931.5
02 16.04 штиль 0
{1}
н/о н/о +21.5 +19.6 89 +27 +27 душно 1016.2 931.4
03 16.04 штиль 0
{1}
н/о н/о +21.2 +19.6 91 +26 +26 душно 1016.3 931.4
04 16.04 штиль 0
{1}
н/о н/о +20.8 +19.1 90 +25 +25 комфорт 1016.0 931.0
05 16.04 штиль 0
{1}
н/о н/о +20.8 +19.4 92 +25 +25 комфорт 1015.2 930.3
06 16.04 штиль 0
{1}
н/о н/о +20.8 +19.4 92 +25 +25 комфорт 1015.2 930.3
07 16.04 штиль 0
{1}
н/о н/о +21.2 +19.7 91 +26 +26 душно 1015.1 930.3
08 16.04 ЮВ 1
{1}
н/о н/о +21.2 +19.8 92 +26 +26 душно 1015.1 930.3
09 16.04 штиль 0
{1}
н/о н/о +21.7 +19.8 89 +27 +27 душно 1015.4 930.7
10 16.04 штиль 0
{1}
н/о н/о +21.7 +20.1 91 +27 +27 душно 1016.3 931.6
11 16.04 С 1
{1}
н/о н/о +21.9 +20.0 89 +28 +28 душно 1017.3 932.5 1
12 16.04 СЗ 1
{2}
н/о н/о +22.0 +19.7 87 +28 +28 душно 1017.7 932.9 0.2
13 16.04 ЮВ 1
{1}
н/о н/о +22.1 +20.4 90 +28 +28 душно 1017.9 933.1 4
14 16.04 СВ 1
{2}
н/о н/о +24.1 +21.6 86 +31 +31 очень
душно
1016.5 932.4 0.2
15 16.04 С 2
{3}
н/о н/о +26.7 +20.4 68 +33 +33 очень
душно
1014.3 931.1
16 16.04
{4}
н/о н/о +27.7 +19.6 61 1013.3 930.4
17 16.04 С 2
{4}
н/о н/о +27.7 +19.5 61 +33 +33 очень
душно
1012.3 929.5
18 16.04 С 1
{3}
н/о н/о +28.7 +19.8 59 +35 +35 очень
душно
1011.0 928.6
19 16.04 СЗ 2
{3}
н/о н/о +27.1 +19.9 65 +33 +33 очень
душно
1011.1 928.2
20 16.04 З 3
{6}
н/о н/о +22.4 +18.8 80 +28 +28 душно 1013.1 928.8
21 16.04 СЗ 2
{5}
н/о н/о +22.0 +19.0 83 +27 +27 душно 1013.9 929.4
22 16.04 СЗ 1
{3}
н/о н/о +21.7 +19.2 86 +27 +27 душно 1013.9 929.4
23 16.04 З 1
{2}
н/о н/о +21.4 +19.1 87 +26 +26 душно 1014.3 929.6
00 17.04 штиль 0
{2}
н/о н/о +20.7 +19.0 90 +25 +25 комфорт 1014.8 929.9
01 17.04 В 1
{1}
н/о н/о +20.1 +18.7 92 +25 +25 комфорт 1015.3 930.2
02 17.04 штиль 0
{1}
н/о н/о +20.0 +18.6 92 +23 +23 комфорт 1015.9 930.7
03 17.04
{2}
н/о н/о +19.9 +18.5 92 1015.1 930.0
04 17.04 ЮЗ 1
{2}
н/о н/о +19.3 +17.9 92 +23 +23 комфорт 1014.8 929.5
05 17.04 С 1
{1}
н/о н/о +19.6 +18.2 92 +24 +24 комфорт 1014.1 929.0
06 17.04 штиль 0
{1}
н/о н/о +19.2 +17.7 91 +21 +21 комфорт 1013.9 928.7
07 17.04 С 1
{2}
н/о н/о +19.4 +17.8 90 +23 +23 комфорт 1013.7 928.5
08 17.04 штиль 0
{2}
н/о н/о +19.3 +17.9 92 +21 +21 комфорт 1013.6 928.4
09 17.04 штиль 0
{1}
н/о н/о +18.9 +17.5 92 +20 +20 1014.0 928.7
10 17.04 штиль 0
{1}
н/о н/о +18.9 +17.6 92 +20 +20 1014.5 929.1
11 17.04 штиль 0
{1}
н/о н/о +21.4 +19.2 87 +26 +26 душно 1014.6 929.9
12 17.04 СВ 1
{1}
н/о н/о +23.6 +19.5 78 +29 +29 душно 1014.7 930.6
13 17.04 З 1
{2}
н/о н/о +25.2 +19.4 70 +30 +30 душно 1014.5 930.9
14 17.04 СВ 1
{3}
н/о н/о +26.9 +19.8 65 +33 +33 очень
душно
1013.9 930.8
15 17.04 С 1
{2}
н/о н/о +28.7 +19.7 58 +35 +35 очень
душно
1012.7 930.1
16 17.04 СЗ 1
{2}
н/о н/о +28.4 +17.2 51 +32 +32 душно 1012.0 929.4
17 17.04 С 1
{3}
н/о н/о +29.9 +17.6 48 +34 +34 очень
душно
1010.6 928.5
18 17.04 СЗ 2
{3}
н/о н/о +30.1 +17.4 47 +34 +34 очень
душно
1009.9 927.9
19 17.04 З 1
{4}
н/о н/о +29.8 +17.8 49 +34 +34 очень
душно
1009.2 927.2
20 17.04 СЗ 1
{3}
н/о н/о +28.3 +17.1 51 +32 +32 душно 1010.2 927.7
21 17.04 СЗ 1
{2}
н/о н/о +27.5 +17.7 55 +32 +32 очень
душно
1010.5 927.8
22 17.04 З 1
{2}
н/о н/о +24.5 +19.0 71 +29 +29 душно 1011.7 928.1
23 17.04 штиль 0
{1}
н/о н/о +23.6 +20.0 80 +29 +29 душно 1012.5 928.6
00 18.04 штиль 0
{1}
н/о н/о +22.2 +20.0 87 +28 +28 душно 1013.6 929.2
01 18.04 С 1
{1}
н/о н/о +22.2 +19.8 86 +28 +28 душно 1013.9 929.5
02 18.04 штиль 0
{1}
н/о н/о +21.5 +19.7 89 +27 +27 душно 1014.0 929.4
03 18.04
{1}
н/о н/о +21.2 +19.0 87 1014.0 929.3
04 18.04 С 1
{1}
н/о н/о +21.0 +18.9 88 +27 +27 душно 1013.6 928.9
05 18.04 С 1
{1}
н/о н/о +20.7 +18.8 89 +26 +26 душно 1013.3 928.5
06 18.04 С 1
{1}
н/о н/о +20.3 +18.1 87 +25 +25 комфорт 1013.1 928.2
07 18.04 штиль 0
{1}
н/о н/о +19.9 +17.8 88 +23 +23 комфорт 1013.1 928.1
08 18.04 штиль 0
{1}
н/о н/о +19.2 +17.3 89 +21 +21 комфорт 1013.5 928.3
09 18.04 штиль 0
{1}
н/о н/о +19.8 +18.0 89 +22 +22 комфорт 1013.8 928.7
10 18.04 штиль 0
{1}
н/о н/о +19.8 +18.1 90 +22 +22 комфорт 1014.5 929.4
11 18.04 С 1
{1}
н/о н/о +23.1 +18.6 76 +29 +29 очень
душно
1014.2 930.0
12 18.04 Ю 1
{1}
н/о н/о +25.7 +19.7 69 +31 +31 очень
душно
1014.1 930.6
13 18.04 ЮВ 1
{2}
н/о н/о +27.1 +19.2 62 +33 +33 очень
душно
1014.0 930.9
14 18.04 Ю 1
{2}
н/о н/о +28.8 +18.3 53 +34 +34 очень
душно
1013.2 930.6
15 18.04 ЮЗ 1
{3}
н/о н/о +27.3 +18.7 59 +32 +32 очень
душно
1013.0 930.0
16 18.04 ЮЗ 1
{2}
н/о н/о +28.6 +18.1 53 +33 +33 очень
душно
1011.7 929.2
17 18.04 СВ 2
{4}
н/о н/о +24.4 +19.7 75 +30 +30 очень
душно
1012.4 928.7
18 18.04 С 1
{4}
н/о н/о +26.2 +18.8 64 +31 +31 очень
душно
1011.1 928.0
19 18.04 Ю 2
{3}
н/о н/о +26.5 +19.1 64 +32 +32 очень
душно
1010.4 927.4
20 18.04 З 1
{3}
н/о н/о +24.7 +20.2 76 +30 +30 очень
душно
1011.3 927.8
21 18.04 штиль 0
{2}
н/о н/о +24.3 +20.2 78 +30 +30 очень
душно
1011.3 927.7
22 18.04 штиль 0
{1}
н/о н/о +23.7 +19.8 79 +29 +29 душно 1011.8 928.0
23 18.04 штиль 0
{1}
н/о н/о +22.9 +20.2 85 +30 +30 очень
душно
1012.8 928.7
00 19.04 штиль 0
{1}
н/о н/о +22.7 +19.8 84 +29 +29 очень
душно
1013.9 929.6
01 19.04 штиль 0 н/о н/о +21.8 +20.1 90 +27 +27 душно 1014.7 930.1
02 19.04 З 1
{1}
н/о н/о +21.2 +19.2 88 +26 +26 душно 1014.9 930.1
03 19.04 штиль 0
{1}
н/о н/о +20.8 +17.7 82 +24 +24 комфорт 1014.5 929.7
04 19.04 ЮЗ 1
{1}
н/о н/о +18.9 +16.5 86 +22 +22 комфорт 1014.6 929.2
05 19.04 штиль 0
{1}
н/о н/о +18.8 +17.2 90 +20 +20 1014.0 928.6
06 19.04 З 1
{1}
н/о н/о +18.3 +16.5 89 +20 +20 1013.9 928.4
07 19.04 штиль 0
{1}
н/о н/о +18.3 +16.0 86 +19 +19 1014.2 928.7
08 19.04 штиль 0
{1}
н/о н/о +17.3 +15.4 89 +17 +17 1014.6 928.8
09 19.04 З 1
{1}
н/о н/о +16.5 +14.9 90 +18 +18 1015.5 929.4
10 19.04 штиль 0
{1}
н/о н/о +16.7 +14.9 89 +17 +17 1016.2 930.1
11 19.04 штиль 0
{1}
н/о н/о +21.8 +17.1 75 +26 +26 душно 1015.8 931.1
12 19.04 Ю 1
{1}
н/о н/о +23.5 +17.6 69 +27 +27 душно 1015.9 931.7
13 19.04 ЮВ 1
{2}
н/о н/о +26.1 +16.2 54 +29 +29 жарко 1015.5 932.0
14 19.04 ЮВ 2
{3}
н/о н/о +27.2 +14.9 47 +30 +30 душно 1015.1 931.9
15 19.04 ЮВ 2
{3}
н/о н/о +27.6 +14.4 44 +30 +30 жарко 1014.1 931.1
16 19.04 ЮВ 1
{2}
н/о н/о +29.0 +15.6 44 +32 +32 душно 1012.5 930.0
17 19.04 Ю 1
{3}
н/о н/о +29.4 +16.0 44 +32 +32 душно 1011.4 929.1
18 19.04 З 1
{3}
н/о н/о +30.3 +15.1 40 +33 +33 душно 1010.6 928.6
19 19.04 З 1
{3}
н/о н/о +30.1 +15.0 40 +32 +32 жарко 1010.2 928.2
20 19.04 Ю 2
{3}
н/о н/о +28.1 +14.5 43 +30 +30 жарко 1010.9 928.3
21 19.04 Ю 1
{3}
н/о н/о +24.7 +15.1 55 +28 +28 душно 1012.0 928.4
22 19.04 ЮЗ 1
{2}
н/о н/о +22.0 +14.2 61 +25 +25 комфорт 1013.0 928.6
23 19.04 ЮВ 1
{2}
н/о н/о +20.2 +14.9 72 +24 +24 комфорт 1014.5 929.5
00 20.04 штиль 0
{2}
н/о н/о +20.3 +13.8 66 +22 +22 комфорт 1015.2 930.2
01 20.04 З 1
{1}
н/о н/о +18.6 +14.0 75 +21 +21 комфорт 1016.0 930.4
02 20.04 С 1
{1}
н/о н/о +18.5 +14.7 79 +21 +21 комфорт 1016.2 930.6
03 20.04 штиль 0
{1}
н/о н/о +17.3 +13.9 80 +17 +17 1016.5 930.5
04 20.04 штиль 0
{1}
н/о н/о +15.3 +13.3 88 +15 +15 1016.6 930.0
05 20.04 С 1
{2}
н/о н/о +15.8 +13.3 85 +17 +17 1016.2 929.8
06 20.04 СЗ 1
{2}
н/о н/о +15.7 +12.2 80 +17 +17 1016.2 929.8
07 20.04 С 1
{2}
н/о н/о +15.5 +12.0 80 +17 +17 1016.3 929.8
08 20.04 Ю 1
{1}
н/о н/о +13.6 +12.1 91 +15 +15 1017.0 929.9
09 20.04 С 1
{1}
н/о н/о +14.6 +12.4 87 +16 +16 1017.2 930.4
10 20.04 штиль 0
{1}
н/о н/о +14.3 +12.8 91 +14 +14 1018.2 931.2
11 20.04 штиль 0
{1}
н/о н/о +18.3 +13.2 72 +19 +19 1017.4 931.6
12 20.04 ЮВ 1
{1}
н/о н/о +22.2 +14.3 61 +25 +25 комфорт 1016.5 931.9
13 20.04 В 1
{2}
н/о н/о +24.9 +14.0 51 +27 +27 жарко 1015.8 932.0
14 20.04 В 1
{2}
н/о н/о +27.1 +12.7 41 +29 +29 жарко 1015.0 931.8
15 20.04 Ю 1
{2}
н/о н/о +27.9 +12.1 38 +29 +29 жарко 1013.9 931.0
16 20.04 ЮЗ 1
{3}
н/о н/о +29.3 +13.0 37 +31 +31 жарко 1012.3 929.9
17 20.04 ЮЗ 1
{3}
н/о н/о +29.3 +13.3 37 +31 +31 жарко 1011.4 929.1
18 20.04 З 1
{3}
н/о н/о +29.7 +13.2 36 +31 +31 жарко 1010.4 928.3
19 20.04 З 2
{3}
н/о н/о +29.6 +13.5 37 +31 +31 жарко 1010.0 927.9
20 20.04 ЮЗ 1
{3}
н/о н/о +28.2 +14.0 42 +30 +30 жарко 1010.2 927.7
21 20.04 ЮЗ 1
{2}
н/о н/о +25.9 +14.5 49 +28 +28 жарко 1011.4 928.2
22 20.04 ЮЗ 1
{1}
н/о н/о +22.2 +16.8 71 +27 +27 душно 1013.3 928.9
23 20.04 штиль 0
{1}
н/о н/о +20.3 +16.5 79 +23 +23 комфорт 1014.7 929.7
00 21.04 штиль 0
{1}
н/о н/о +19.6 +15.1 75 +21 +21 комфорт 1015.2 930.0
01 21.04 штиль 0
{1}
н/о н/о +19.0 +15.7 81 +20 +20 1015.7 930.3
02 21.04 штиль 0
{1}
н/о н/о +18.7 +15.9 84 +20 +20 1015.8 930.3
03 21.04 С 1
{1}
н/о н/о +18.4 +15.1 81 +20 +20 1015.6 930.0
04 21.04 штиль 0
{1}
н/о н/о +17.6 +14.7 83 +18 +18 1015.5 929.7
05 21.04 штиль 0
{1}
н/о н/о +17.0 +14.7 86 +17 +17 1015.5 929.5
06 21.04 штиль 0
{1}
н/о н/о +15.9 +14.0 88 +16 +16 1015.3 929.0
07 21.04 С 1
{1}
н/о н/о +16.9 +14.1 84 +18 +18 1014.8 928.8
08 21.04 штиль 0
{1}
н/о н/о +15.7 +13.7 88 +15 +15 1014.8 928.5
09 21.04 штиль 0
{1}
н/о н/о +15.7 +13.3 86 +15 +15 1015.0 928.7
10 21.04 штиль 0
{2}
н/о н/о +16.9 +13.5 80 +17 +17 1015.2 929.2
11 21.04 С 1
{2}
н/о н/о +20.0 +14.4 70 +23 +23 комфорт 1015.1 930.0
12 21.04 С 1
{2}
н/о н/о +24.5 +14.6 54 +27 +27 жарко 1014.2 930.4
13 21.04
{2}
н/о н/о +26.5 +14.0 46 1013.8 930.6
14 21.04 СВ 2
{3}
н/о н/о +28.7 +10.5 32 +29 +29 жарко 1012.9 930.3
15 21.04 С 1
{3}
н/о н/о +29.6 +11.8 33 +30 +30 жарко 1012.0 929.7
16 21.04 С 1
{3}
н/о н/о +30.5 +11.9 32 +31 +31 жарко 1010.8 928.9
17 21.04 С 1
{3}
н/о н/о +31.6 +12.6 31 +32 +32 жарко 1010.0 928.4
18 21.04 СЗ 1
{3}
н/о н/о +31.0 +9.7 27 +31 +31 жарко 1009.1 927.4
19 21.04 З 1
{2}
н/о н/о +31.5 +8.4 24 +30 +30 жарко 1008.3 926.8
20 21.04 ЮЗ 1
{2}
н/о н/о +29.3 +10.3 31 +29 +29 жарко 1008.8 926.7
21 21.04 З 1
{1}
н/о н/о +27.4 +11.3 37 +28 +28 жарко 1009.7 927.0
22 21.04 ЮЗ 1
{1}
н/о н/о +22.6 +15.4 64 +27 +27 душно 1012.0 927.9
23 21.04 штиль 0
{1}
н/о н/о +22.0 +15.8 68 +26 +26 душно 1013.2 928.8
00 22.04 штиль 0
{1}
н/о н/о +20.2 +15.9 76 +23 +23 комфорт 1014.5 929.5
01 22.04 штиль 0
{1}
н/о н/о +19.6 +16.8 84 +22 +22 комфорт 1014.6 929.4
02 22.04 штиль 0
{1}
н/о н/о +18.9 +15.5 81 +20 +20 1014.5 929.1
03 22.04 С 1
{1}
н/о н/о +18.7 +15.1 80 +21 +21 комфорт 1014.1 928.7
04 22.04 штиль 0
{2}
н/о н/о +18.7 +15.0 79 +20 +20 1014.1 928.7
05 22.04 С 1
{2}
н/о н/о +18.8 +14.9 78 +21 +21 комфорт 1013.6 928.3
06 22.04 СЗ 1
{2}
н/о н/о +17.6 +14.4 82 +19 +19 1013.3 927.7
07 22.04 штиль 0
{2}
н/о н/о +17.8 +14.8 83 +18 +18 1013.3 927.7
08 22.04 З 1
{1}
н/о н/о +18.2 +15.2 83 +20 +20 1013.7 928.2
09 22.04 штиль 0
{1}
н/о н/о +16.7 +14.9 89 +17 +17 1014.5 928.5
10 22.04 штиль 0
{1}
н/о н/о +18.3 +15.8 85 +19 +19 1014.7 929.1
11 22.04 штиль 0
{1}
н/о н/о +21.9 +18.3 80 +27 +27 душно 1014.1 929.6
12 22.04 штиль 0
{1}
н/о н/о +25.9 +17.5 60 +30 +30 душно 1013.7 930.3
13 22.04 С 1
{2}
н/о н/о +28.1 +18.3 55 +33 +33 очень
душно
1013.2 930.4
14 22.04
{3}
н/о н/о +29.1 +18.3 52 1012.7 930.2
15 22.04 С 1
{3}
н/о н/о +29.1 +17.3 49 +33 +33 очень
душно
1012.0 929.6
16 22.04 С 1
{3}
н/о н/о +31.2 +18.5 47 +36 +36 очень
душно
1010.3 928.6
17 22.04 С 2
{3}
н/о н/о +30.7 +17.7 46 +35 +35 очень
душно
1009.3 927.5
18 22.04 ЮЗ 1
{3}
н/о н/о +30.9 +18.5 48 +36 +36 очень
душно
1008.5 926.8
19 22.04 СВ 2
{5}
н/о н/о +26.9 +17.7 57 +31 +31 душно 1010.0 927.2
20 22.04 Ю 2
{5}
н/о н/о +24.4 +17.1 64 +28 +28 душно 1011.4 927.8
21 22.04 Ю 2
{4}
н/о н/о +22.6 +17.9 75 +28 +28 душно 1012.4 928.2
22 22.04 Ю 1
{3}
н/о н/о +21.8 +17.7 78 +26 +26 душно 1013.6 929.1

 

Местоположение метеостанции Морриньюс (Гояс, Бразилия): широта -17.72 долгота -49.10 высота над уровнем моря 773 м.

В архиве по умолчанию представлена погода в Морриньюсе за последнюю неделю. Архивные данные за месяц целиком и за предыдущие месяцы, начиная с января 2011 года, Вы можете получить, выбрав интересующий диапазон дат из раскрывающегося списка и нажав кнопку "Ввод!".


*Определитесь, кто Вы:
робот инопланетянин человек

Внимание! Время в таблицах - всемирное. Для получения местного времени необходимо прибавить поправку, которая равна -3 ч.

Смотрите также архив погоды в соседних городах и на ближайших метеорологических станциях:

Погода в Итумбиаре (Гояс, Бразилия) (79 км)
Погода в Пирис-ду-Риу (Гояс, Бразилия) (99 км)
Погода в Гоянии (Гояс, Бразилия) (119 км)
Погода в Гоянии (Гояс, Бразилия) (120 км)
Погода в Силвании (Гояс, Бразилия) (126 км)
Погода в Каталане (Гояс, Бразилия) (132 км)
Погода в Каталане (Гояс, Бразилия) (133 км)
Погода в Итиютабе (Минас-Жерайс, Бразилия) (144 км)
Погода в Уберландии (Минас-Жерайс, Бразилия) (161 км)
Погода в Парауне (Гояс, Бразилия) (165 км)

Пояснения к столбцам:

Ветер - указаны скорость ветра в м/с - средняя за 10 мин, порывы в срок и между сроками (в фигурных скобках) и направление, откуда дует ветер: С - северный, СВ - северо-восточный, В - восточный, ЮВ - юго-восточный, Ю - южный, ЮЗ - юго-западный, З - западный, СЗ - северо-западный.
Видимость - горизонтальная дальность видимости в метрах или километрах. При видимости от 1 до 10 км при отсутствии осадков обычно наблюдается дымка, при ухудшении видимости до 1 км и менее - туман. В сухую погоду видимость может ухудшаться дымом, пылью или мглою.
Явления - указаны атмосферные явления, наблюдавшиеся в срок или в последний час перед сроком; фигурными скобками обозначены явления, наблюдавшиеся между сроками (за 1-3 часа до срока); квадратными скобками обозначены град или гололедные отложения с указанием их диаметра в мм.
Облачность - указаны через наклонную черту общая и нижняя облачность в баллах и высота нижней границы облаков в метрах; квадратными скобками обозначены формы облаков: Ci - перистые, Cs - перисто-слоистые, Cc - перисто-кучевые, Ac - высококучевые, As - высокослоистые, Sc - слоисто-кучевые, Ns - слоисто-дождевые, Cu - кучевые, Cb - кучево-дождевые. Подробнее классификацию облаков см. в Атласе облаков (PDF).
T - Температура воздуха - температура, измеренная на высоте 2 м над землей.
Td - Температура точки росы - температура, при понижении до которой содержащийся в воздухе водяной пар достигнет насыщения.
f - Относительная влажность воздуха - влажноcть воздуха, измеренная на высоте 2 м над землей.
Te - Эффективная температура - температура, которую ощущает одетый по сезону человек в тени. Характеристика душности погоды. При расчете учитывается влияние влажности воздуха и скорости ветра на теплоощущения человека.
Tes - Эффективная температура на солнце - температура, которую ощущает человек, с поправкой на солнечный нагрев. Характеристика знойности погоды. Зависит от высоты солнца над горизонтом, облачности и скорости ветра. Ночью, в пасмурную погоду, а также при ветре 12 м/с и более поправка равна нулю.
P - Атмосферное давление - приведенное к уровню моря атмосферное давление.
Po - Атмосферное давление - измеренное на уровне метеостанции атмосферное давление.
Tmin - Минимальная температура - минимум температуры воздуха на высоте 2 м над землей.
Tmax - Максимальная температура - максимум температуры воздуха на высоте 2 м над землей.
R - Количество осадков - Количество выпавших осадков за период времени, мм. При наведении курсора мыши на число - период времени, за который выпало указанное количество осадков.
R24 - Количество осадков - Количество выпавших осадков за 24 часа, мм.
S - Снежный покров - Высота снежного покрова, см. При наведении курсора мыши на число - состояние снежного покрова и степень покрытия местности в баллах.